This is the latest recevied weather packets stored in our database for station/object VK2BLR. If no packets are shown the sender has not sent any weather packets the latest 10 day(s).
| Time | Temp. | Humidity | Pressure | Rain* | Wind** | Luminosity | Snow |
|---|---|---|---|---|---|---|---|
| 1777846113 | 16.67° C | 93% | 1014.8 hPa | 2.79 mm | - | - | - |
| 1777845213 | 16.67° C | 94% | 1015 hPa | 3.81 mm | - | - | - |
| 1777844313 | 16.67° C | 95% | 1014.8 hPa | 5.08 mm | - | - | - |
| 1777843412 | 16.67° C | 95% | 1014.8 hPa | 5.33 mm | - | - | - |
| 1777842514 | 16.67° C | 94% | 1015.1 hPa | 4.57 mm | - | - | - |
| 1777841613 | 16.67° C | 94% | 1014.9 hPa | 3.81 mm | - | - | - |
| 1777840713 | 16.67° C | 94% | 1014.7 hPa | 3.3 mm | - | - | - |
| 1777839813 | 16.67° C | 94% | 1014.5 hPa | 2.29 mm | - | - | - |
| 1777838914 | 16.67° C | 94% | 1014.5 hPa | 1.78 mm | - | - | - |
| 1777838014 | 16.67° C | 94% | 1014.3 hPa | 1.52 mm | - | - | - |
| 1777837114 | 16.67° C | 94% | 1014.5 hPa | 1.52 mm | - | - | - |
| 1777836214 | 16.67° C | 94% | 1014.5 hPa | 1.78 mm | - | - | - |
| 1777835313 | 16.67° C | 93% | 1014.4 hPa | 1.78 mm | - | - | - |
| 1777834413 | 16.67° C | 93% | 1014.5 hPa | 1.52 mm | - | - | - |
| 1777833513 | 16.67° C | 94% | 1014.5 hPa | 1.02 mm | - | - | - |
| 1777832613 | 16.67° C | 94% | 1014.4 hPa | 0.51 mm | - | - | - |
| 1777831713 | 16.67° C | 95% | 1014.1 hPa | 0.25 mm | - | - | - |
| 1777830814 | 16.67° C | 95% | 1014.1 hPa | 0 mm | - | - | - |
| 1777829912 | 16.67° C | 94% | 1014.3 hPa | 0.51 mm | - | - | - |
| 1777829013 | 16.67° C | 94% | 1014.4 hPa | 1.02 mm | - | - | - |
| 1777828114 | 16.67° C | 94% | 1014.7 hPa | 1.52 mm | - | - | - |
| 1777827213 | 16.67° C | 94% | 1014.8 hPa | 1.78 mm | - | - | - |
| 1777826312 | 16.67° C | 93% | 1015.2 hPa | 2.03 mm | - | - | - |
| 1777825413 | 16.67° C | 93% | 1015.3 hPa | 2.29 mm | - | - | - |
| 1777824493 | 16.67° C | 93% | 1015.4 hPa | 2.29 mm | - | - | - |
* Rain latest hour (hover to see other rain measurements)
** Current wind speed in m/s (hover to see current wind gust speed)